Regional Weather Roundup
Issued by NWS Sioux Falls, SD

Home | Current Version | Previous Version | Graphics & Text | Print | Product List | Glossary On
Versions: 1 2 3 4 5 6 7 8 9 10 11 12 13 14 15 16 17 18 19 20 21 22 23 24 25 26 27 28 29 30 31 32 33 34 35 36 37 38 39 40 41 42 43 44 45 46 47 48 49 50
000
ASUS43 KFSD 021702
RWRFSD

WEATHER ROUNDUP FOR SE SOUTH DAKOTA/SW MINNESOTA/NW IOWA
NATIONAL WEATHER SERVICE SIOUX FALLS SD
1200 PM CDT THU JUL 02 2015

NOTE: "FAIR" INDICATES FEW OR NO CLOUDS BELOW 12,000 FEET WITH NO
SIGNIFICANT WEATHER AND OR OBSTRUCTIONS TO VISIBILITY.


SDZ038>040-050-052>070-021800-
SOUTHEAST SOUTH DAKOTA

CITY           SKY/WX    TMP DP  RH WIND       PRES   REMARKS
BROOKINGS      CLOUDY    64  48  55 S6        30.03S
CHAMBERLAIN    NOT AVBL
HURON          CLOUDY    65  58  78 CALM      29.99R
MADISON        FAIR      66  54  63 SE8       30.01F
MITCHELL       CLOUDY    67  61  81 E7        29.97F
SIOUX FALLS    CLOUDY    65  57  75 E9        30.00S
WINNER         PTSUNNY   72  62  71 N6        29.99S
YANKTON        CLOUDY    61  57  88 E9        29.97F
$$

MNZ071-072-080-081-089-090-097-098-021800-
SOUTHWEST MINNESOTA

CITY           SKY/WX    TMP DP  RH WIND       PRES   REMARKS
FAIRMONT       MOSUNNY   68  48  49 SE9       30.03S
JACKSON        PTSUNNY   68  50  52 SE8       30.04S
MARSHALL       MOSUNNY   68  48  49 S10       30.01S
MONTEVIDEO     SUNNY     72  50  46 S5        30.03R
PIPESTONE      CLOUDY    66  52  59 S7        30.02S
REDWOOD FALLS  SUNNY     71  48  43 SE12      30.01F
TRACY          MOSUNNY   69  51  52 SE8       30.03S
WINDOM         PTSUNNY   68  52  56 E6        30.03S
WORTHINGTON    CLOUDY    64  52  63 SE8       30.02F
$$

IAZ001>003-012>014-020>022-031-032-NEZ013-014-SDZ071-021800-
NORTHWEST IOWA

CITY           SKY/WX    TMP DP  RH WIND       PRES   REMARKS
ESTHERVILLE    PTSUNNY   66  51  58 SE9       30.03R
SIOUX CITY     CLOUDY    65  59  81 E5        29.99R
SPENCER        CLOUDY    68  52  56 SE10      30.02R
$$

ABBREVIATIONS USED IN REMARKS
   TC - TEMPERATURE IN CELSIUS
  WCI - WIND CHILL INDEX
   HX - HEAT INDEX
  VSB - VISIBILITY




USA.gov is the U.S. government's official web portal to all federal, state and local government web resources and services.